Location: Unspecified
(32.5099°N, 80.0190°W)
Time: 13:11:01
(UTC-05:00)

CZ-3 Stage 3 - Visible Passes

Search period start: 20 January 2017 00:00
Search period end: 30 January 2017 00:00
Orbit: 435 x 34768 km, 30.5° (Epoch: 19 January)

Date Brightness Start Highest point End Pass type
(mag) Time Alt. Az. Time Alt. Az. Time Alt. Az.
20 Jan 9.4 21:32:19 10° ENE 02:22:48 33° ENE 04:15:35 10° E visible
21 Jan 9.3 07:04:14 10° W 08:12:29 14° WNW 10:02:25 10° WNW visible
22 Jan 8.0 03:12:39 53° WSW 04:32:52 63° WSW 11:45:03 10° S visible
22 Jan 7.4 22:40:01 10° S 05:55:05 83° ESE 08:07:58 10° ESE visible
23 Jan 9.5 21:19:36 10° ENE 02:13:45 33° ENE 04:06:51 10° E visible
24 Jan 9.4 06:54:58 10° W 08:04:08 14° WNW 09:56:06 10° WNW visible
25 Jan 8.0 03:10:49 55° WSW 04:23:27 63° WSW 11:36:11 10° S visible
25 Jan 7.4 22:31:05 10° S 05:45:12 83° ESE 07:59:15 10° ESE visible
26 Jan 9.6 21:06:56 10° ENE 02:04:44 33° ENE 03:58:04 10° E visible
27 Jan 9.5 06:45:38 10° W 07:55:44 15° WNW 09:49:44 10° WNW visible
28 Jan 8.0 03:08:18 57° WSW 04:14:05 63° WSW 11:27:17 10° S visible
28 Jan 7.4 22:22:07 10° S 05:35:13 83° ESE 07:50:31 10° ESE visible
